Regional Weather Roundup
Issued by NWS

Home | Current Version | Previous Version | Text Only | Print | Product List | Glossary Off
Versions: 1 2 3 4 5 6 7 8 9 10 11 12 13 14 15 16 17 18 19 20 21 22 23 24 25 26 27 28 29 30 31 32 33 34 35 36 37 38 39 40 41 42 43 44 45 46 47 48 49 50

000
ASUS43 KMKX 221011
RWRWI

WISCONSIN REGIONAL WEATHER ROUNDUP
NATIONAL WEATHER SERVICE MILWAUKEE/SULLIVAN WI
500 AM CDT THU JUN 22 2017

NOTE: "FAIR" INDICATES FEW OR NO CLOUDS BELOW 12,000 FEET WITH NO
SIGNIFICANT WEATHER AND/OR OBSTRUCTIONS TO VISIBILITY.

WIZ001-002-006>008-014>016-023>028-221100-
NORTHWEST WISCONSIN

CITY           SKY/WX    TMP DP  RH WIND       PRES   REMARKS
SUPERIOR ARPT  NOT AVBL
ASHLAND        CLOUDY    56  53  90 W3        29.65F
HAYWARD        MOCLDY    60  57  89 CALM      29.68R
SIREN          PTCLDY    62  60  93 CALM      29.67R
CUMBERLAND     MOCLDY    59  57  94 N3        29.69R
RICE LAKE      CLEAR     62  59  88 CALM      29.69R
CHETEK           N/A     62  60  93 CALM      29.69R
LADYSMITH      CLOUDY    60  57  88 CALM      29.71R
EAU CLAIRE     MOCLDY    64  61  90 CALM      29.67R
MENOMONIE      CLOUDY    63  61  92 E3        29.68R
NEW RICHMOND   CLEAR     64  61  91 CALM      29.68R
OSCEOLA        CLEAR     63  63 100 CALM      29.70R
$$

WIZ003>005-009-010-017-018-221100-
NORTH CENTRAL WISCONSIN

CITY           SKY/WX    TMP DP  RH WIND       PRES   REMARKS
MANITOWISH WTR CLOUDY    60  59  98 CALM      29.68F
ARBOR VITAE    CLOUDY    62  57  83 CALM      29.69F
WOODRUFF       CLOUDY    62  57  83 CALM      29.69F
RHINELANDER    CLOUDY    62  59  90 S3        29.70F
EAGLE RIVER    MOCLDY    61  54  79 CALM      29.69F
LAND O LAKES   CLOUDY    61  55  79 CALM      29.70F
PHILLIPS       CLEAR     60  58  96 CALM      29.68R
TOMAHAWK       NOT AVBL
MEDFORD        CLOUDY    61  60  96 S14       29.67F
MERRILL        CLOUDY    64  61  91 CALM      29.70F
$$

WIZ029-030-035-036-043>047-221100-
CENTRAL WISCONSIN

CITY           SKY/WX    TMP DP  RH WIND       PRES   REMARKS
WAUSAU         CLOUDY    63  61  93 S6        29.70S
MOSINEE        CLOUDY    61  61 100 S9        29.73R
MARSHFIELD     CLOUDY    62  59  90 S6        29.70S
STEVENS POINT  CLOUDY    60  60 100 S8        29.74R
WAUPACA        LGT RAIN  64  63  97 SE7       29.75S
WAUTOMA        LGT RAIN  66  65  96 S14       29.74F
WISC RAPIDS    CLOUDY    63  61  93 S6        29.74R
CAMP DOUGLAS   HVY RAIN  70  68  94 SW7       29.74R FOG
$$

WIZ011>013-019>022-031-037>040-048>050-221100-
NORTHEAST WISCONSIN

CITY           SKY/WX    TMP DP  RH WIND       PRES   REMARKS
ANTIGO         CLOUDY    60  58  95 S8        29.72R
SHAWANO        CLOUDY    65  63  91 SW5       29.71S
OCONTO         CLOUDY    62  60  94 CALM      29.71F
STURGEON BAY     N/A     62  58  86 SW8         N/A
GREEN BAY      CLOUDY    63  61  93 S10       29.73F
MANITOWOC      TSTM      64  57  78 SW12      29.81R
APPLETON       CLOUDY    61  61 100 S5        29.76F
CLINTONVILLE   CLOUDY    63  59  88 S8        29.73R
OSHKOSH        TSTM      65  62  90 SW7       29.77R FOG
$$

WIZ032>034-041-042-053>061-221100-
SOUTHWEST WISCONSIN

CITY           SKY/WX    TMP DP  RH WIND       PRES   REMARKS
LA CROSSE      CLOUDY    71  69  93 E5        29.68F
SPARTA         RAIN      66  66  99 S3        29.72F
VIROQUA        CLOUDY    69  68  94 W8        29.75F
BOSCOBEL       LGT RAIN  75  67  76 SW9G17    29.76R
PRAIRIE DU CHI LGT RAIN  73  62  68 SW22G32   29.73F
PLATTEVILLE    CLOUDY    76  66  72 W21G30    29.81R
$$

WIZ056-057-062-063-064-067-068-221100-
SOUTH CENTRAL WISCONSIN

CITY           SKY/WX    TMP DP  RH WIND       PRES   REMARKS
REEDSBURG      LGT RAIN  68  68 100 S5        29.77F
BARABOO/DELLS  CLOUDY    68  65  90 S3        29.78F
LONE ROCK      LGT RAIN  72  67  84 CALM      29.76R
MINERAL POINT  CLOUDY    79  64  61 SW17G32   29.80R HX  81
MADISON        CLOUDY    73  65  75 VRB5      29.79R
MIDDLETON      CLOUDY    72  65  80 NW6       29.80R
WATERTOWN      CLOUDY    67  64  91 S3        29.78R
MONROE         CLOUDY    72  64  78 SW17G23   29.79R
JANESVILLE     CLOUDY    73  64  73 SW10      29.78R
$$

WIZ051-052-058>065-066-070>072-221100-
SOUTHEAST WISCONSIN

CITY           SKY/WX    TMP DP  RH WIND       PRES   REMARKS
MILWAUKEE      CLOUDY    70  62  76 SW10      29.78S
WAUKESHA       CLOUDY    63  59  88 S7        29.80R
MILWAUKEE/TIMM CLOUDY    66  57  72 SW8       29.78R
RACINE         PTCLDY    72  63  73 SW12      29.79F
KENOSHA        CLOUDY    74  66  76 SW14G24   29.79F
FOND DU LAC    LGT RAIN  69  61  75 W13       29.79R
SHEBOYGAN      LGT RAIN  64  60  87 SE5       29.74F
WEST BEND      CLOUDY    68  61  77 SW10      29.76S
JUNEAU         CLOUDY    67  62  82 SW8       29.79R
$$

LSZ147-162-221100-
LAKE SUPERIOR

STATION/POSITION TIME  TEMP    WIND        PRES    WAVE
                       AIR SEA DIR/SP/G            HT/PER
                 (UTC) (F)     (DEG/KT/KT) (MB)    (FT/S)
W MID LAKE BUOY  0950   47 39  180/ 12/ 14 1003.0F   0
DEVILS ISLAND    1000   54     280/  7/  8 1003.6S
SAXON HARBOR     0940   62     200/  6/  7 1003.4F
$$

LMZ867-665-643>646-221100-
LAKE MICHIGAN

STATION/POSITION TIME  TEMP    WIND        PRES    WAVE
                       AIR SEA DIR/SP/G            HT/PER
                 (UTC) (F)     (DEG/KT/KT) (MB)    (FT/S)
CHAMBERS ISLAND  0940   63     170/  3/  6 1006.4F
N MID LAKE BUOY  0950   58 55  170/ 14/ 17 1007.3F   1/ 3
NORTHPORT PIER   0940   60     160/ 10/ 13 1006.8F
KEWAUNEE LAKESHO 0948   63     180/ 19/ 23 1006.4F
SHEBOYGAN LAKESH 1000   56     180/  7/  9 1007.0F
PORT WASHINGTON  0930   59      CALM  /  1 1008.5F
ATWATER BUOY     0909   60 54  170/ 12/ 16 1007.8F
MILWAUKEE LAKESH 0950   62     120/  3/  4   N/A
S MID LAKE BUOY  0950   66 61  160/ 14/ 17 1008.7F   2/ 3
KENOSHA   LAKESH 1000   74     210/ 10/ 17 1008.8
$$

TC  - TEMPERATURE IN CELSIUS
VSB - VISIBILITY IN STATUTE MILES
WCI - WIND CHILL INDEX
HX  - HEAT INDEX





USA.gov is the U.S. government's official web portal to all federal, state and local government web resources and services.